Regional Weather Roundup
Issued by NWS

Home | Current Version | Previous Version | Text Only | Print | Product List | Glossary On
Versions: 1 2 3 4 5 6 7 8 9 10 11 12 13 14 15 16 17 18 19 20 21 22 23 24 25 26 27 28 29 30 31 32 33 34 35 36 37 38 39 40 41 42 43 44 45 46 47 48 49 50
000
ASUS43 KLSX 180807
RWRMO

WEATHER SUMMARY FOR MISSOURI
NATIONAL WEATHER SERVICE SPRINGFIELD MO
300 AM CDT WED OCT 18 2017

NOTE: "FAIR" INDICATES FEW OR NO CLOUDS BELOW 12,000 FEET WITH NO
       SIGNIFICANT WEATHER AND/OR OBSTRUCTIONS TO VISIBILITY.
       CURRENT SKY AND/OR WEATHER CONDITIONS ARE NOT AVAILABLE FOR
       CHILLICOTHE AND FARMINGTON.

MOZ001>031-035>038-043-044-053-054-180900-
...NORTHERN AND WESTERN MISSOURI...

CITY           SKY/WX    TMP DP  RH WIND       PRES   REMARKS
KANSAS CTY INT CLEAR     55  46  71 S14       30.07F
KANSAS C DTWN  CLEAR     57  46  66 SW8       30.07F
LEE`S SUMMIT   CLEAR     55  46  71 S16       30.09F
ST JOSEPH      CLEAR     54  47  77 S8        30.05S
CHILLICOTHE      N/A     51  47  86 CALM      30.10S
KIRKSVILLE     CLEAR     53  45  74 S8        30.11F

$$
MOZ066>068-077>081-088>096-101>105-180900-
...SOUTHWEST MISSOURI...

CITY           SKY/WX    TMP DP  RH WIND       PRES   REMARKS
SPRINGFIELD    CLEAR     49  40  71 S9        30.16S
JOPLIN         CLEAR     49  44  83 S8        30.15R
BRANSON        CLEAR     43  39  87 CALM      30.19S

$$
MOZ032>034-039>042-045>050-055>058-069>072-180900-
...CENTRAL MISSOURI...

CITY           SKY/WX    TMP DP  RH WIND       PRES   REMARKS
COLUMBIA       CLEAR     49  41  74 S10       30.15S
JEFFERSON CITY PTCLDY    46  40  79 E3        30.16S
ROLLA          CLEAR     52  40  63 S12       30.18S
SEDALIA        CLEAR     52  44  74 S7        30.13F
WHITEMAN AFB   CLEAR     48  42  80 S9        30.08S
WARRENSBURG    CLEAR     50  45  81 S8        30.11S
OSAGE BEACH    CLEAR     47  40  76 S6        30.17S

$$
MOZ051-052-059>065-180900-
...EAST CENTRAL MISSOURI...

CITY           SKY/WX    TMP DP  RH WIND       PRES   REMARKS
ST LOUIS INTL  CLEAR     52  43  71 S7        30.19S
SPIRIT OF STL  CLEAR     45  40  82 CALM      30.18S
ST CHARLES     CLEAR     42  39  89 NE3       30.19S

$$
MOZ072>076-082>087-097>100-106>115-180900-
...SOUTH CENTRAL AND SOUTHEAST MISSOURI...

CITY           SKY/WX    TMP DP  RH WIND       PRES   REMARKS
CAPE GIRARDEAU CLEAR     40  38  93 CALM      30.23S
FARMINGTON     CLEAR     44  39  82 CALM      30.21S
POPLAR BLUFF   CLEAR     39  39 100 CALM      30.22S
WEST PLAINS    CLEAR     47  38  71 S3        30.21S

$$


USA.gov is the U.S. government's official web portal to all federal, state and local government web resources and services.